Simultaneous Nadir Overpasses (SNOs) Predictions

Prediction of SNOs between FY3D and NOAA-19 Satellite Orbit:

Table of predicted SNOs for the next 14.0 days since TLE Epoch: 7/30/2022
Index Date (FY3D) Time (FY3D) Lat,Lon (FY3D) SZA (FY3D ) Date (NOAA-19) Time (NOAA-19) Lat,Lon (NOAA-19) SZA (NOAA-19 ) Distance(km) Time Diff (sec)
1 08/01/2022 10:53:06 -77.25,-178.45 120.19 08/01/2022 10:51:53 -77.24,-179.46 120.09 24.79 73
2 08/01/2022 11:43:55 77.34, -11.56 59.94 08/01/2022 11:42:46 77.36, -11.62 59.99 3.04 69
3 08/01/2022 12:34:40 -77.36, 155.66 120.03 08/01/2022 12:33:50 -77.36, 155.59 120.01 1.70 50
4 08/01/2022 13:25:27 77.37, -37.07 60.00 08/01/2022 13:24:46 77.35, -37.15 60.00 2.45 41
5 08/01/2022 14:16:12 -77.39, 130.15 119.97 08/01/2022 14:15:49 -77.39, 130.26 119.97 2.61 23
6 08/01/2022 15:06:59 77.40, -62.58 60.05 08/01/2022 15:06:45 77.39, -62.49 60.04 2.41 14
7 08/01/2022 15:57:43 -77.37, 104.83 119.97 08/01/2022 15:57:49 -77.38, 104.73 119.96 2.75 6
8 08/01/2022 16:48:30 77.38, -87.90 60.05 08/01/2022 16:48:45 77.38, -88.02 60.05 3.02 15
9 08/01/2022 17:39:15 -77.40, 79.32 119.92 08/01/2022 17:39:48 -77.42, 79.39 119.92 2.30 33
10 08/01/2022 18:30:02 77.41,-113.41 60.11 08/01/2022 18:30:44 77.41,-113.36 60.09 1.28 42
11 08/01/2022 19:20:47 -77.43, 53.81 119.86 08/01/2022 19:21:48 -77.41, 53.86 119.91 2.70 61
12 08/01/2022 20:11:34 77.44,-138.92 60.16 08/01/2022 20:12:44 77.41,-138.89 60.10 3.91 70



Historial Predications of SNOs between FY3D and NOAA-19
